Content
SEND FEEDBACK

Daily
Averages
Monthly
Summary
Morocco

AGADIR, MOROCCO


Home > Africa > Morocco
Elevation: 75 feet     Latitude: 30 23N     Longitude: 009 34W

WEATHER
 
SELECT A DAY
Number of Records: 132,630;   Date Range: 7/9/96 - 4/22/14
 
SHARE

PRINT THIS DATA

[ ← Previous Day ]
WEATHER ALMANAC - FEBRUARY 5, 2013
[ Next Day → ]
[ °C ]   °F
Weather ElementAverageHighLow
Temperature56.3 °F72 °F (12:00 pm)41 °F (7:00 am)
Dewpoint38.8 °F50 °F (11:00 pm)30.2 °F (1:00 pm)
Humidity55.2 %88 % (11:00 pm)13 % (12:00 pm)
Barometer30.30 in30.38 in (9:00 am)30.24 in (5:00 pm)
Wind Speed6.1 mph16.1 mph (5:00 pm)
Weather ElementAverage
Visibility5.5 mi
Wind DirectionESE (124.5 °)

Weather ElementTotal
Precipitation---
Heating Degree Days8.5 (Base 65)
Growing Degree Days6.5 (Base 50)
Averaged from 31 records on February 5, 2013
WEATHER CONDITIONS BREAKOUT
WIND DIRECTION BREAKOUT
WEATHER BY HOUR - FEBRUARY 5, 2013
[ °C ]   °F
Local TimeTemperatureDewpointHumidityBarometerVisibilityWind DirectionWind SpeedGust SpeedPrecipitationEventsConditions
12:00 AM48.2 °F41.0 °F76 %30.30 inCalmClear
1:00 AM48.2 °F39.2 °F71 %30.30 inCalm
2:00 AM48.2 °F41.0 °F76 %30.30 in6.2 miEast (100°)4.6 mph
3:00 AM44.0 °F38.0 °F71 %30.31 in6.0 miCalm
3:00 AM44.6 °F39.2 °F81 %30.30 in6.2 miENE (70°)3.5 mph
4:00 AM44.6 °F37.4 °F76 %30.30 in6.2 miCalm
5:00 AM44.6 °F37.4 °F76 %30.30 inCalmClear
6:00 AM42.8 °F37.4 °F81 %30.30 in6.2 miENE (60°)4.6 mph
6:00 AM42.0 °F37.0 °F75 %30.34 in6.0 miENE (60°)4.6 mph
7:00 AM41.0 °F35.6 °F81 %30.33 inEast (80°)5.8 mphClear
8:00 AM42.8 °F37.4 °F81 %30.36 inENE (60°)4.6 mphClear
9:00 AM51.0 °F37.0 °F47 %30.38 in5.0 miENE (70°)6.9 mph
9:00 AM50.0 °F37.4 °F62 %30.36 in5.0 miENE (70°)6.9 mph
10:00 AM59.0 °F37.4 °F45 %30.36 inEast (80°)5.8 mphClear
11:00 AM64.4 °F35.6 °F34 %30.36 in5.0 miENE (60°)5.8 mph
12:00 PM71.6 °F32.0 °F23 %30.33 in5.0 miCalm
12:00 PM72.0 °F32.0 °F13 %30.35 in5.0 miCalm
1:00 PM71.6 °F30.2 °F22 %30.30 in5.0 miVariable2.3 mph
2:00 PM71.6 °F32.0 °F23 %30.27 inWest (270°)11.5 mphClear
3:00 PM70.0 °F36.0 °F18 %30.28 in6.0 miWest (260°)11.5 mph
3:00 PM69.8 °F35.6 °F28 %30.27 in6.2 miWest (260°)11.5 mph
4:00 PM68.0 °F39.2 °F35 %30.27 inWest (260°)13.8 mphClear
5:00 PM66.2 °F37.4 °F35 %30.24 inWest (260°)16.1 mphClear
6:00 PM64.4 °F41.0 °F42 %30.24 in5.0 miWSW (250°)12.7 mph
6:00 PM65.0 °F40.0 °F28 %30.25 in6.0 miWSW (250°)12.7 mph
7:00 PM60.8 °F42.8 °F52 %30.24 inSSW (200°)8.1 mphClear
8:00 PM57.2 °F46.4 °F67 %30.24 inSouth (180°)8.1 mph
9:00 PM57.0 °F47.0 °F61 %30.27 in5.0 miSouth (180°)9.2 mph
9:00 PM57.2 °F46.4 °F67 %30.24 in5.0 miSouth (180°)9.2 mph
10:00 PM55.4 °F48.2 °F77 %30.27 in5.0 miSouth (180°)6.9 mph
11:00 PM53.6 °F50.0 °F88 %30.27 in5.0 miSouth (170°)1.2 mph
Hourly data recorded from GMAD, located 0.73 miles away from Agadir, Morocco







STORIES FROM OUR PARTNERS